This is the latest recevied weather packets stored in our database for station/object OH2TI. If no packets are shown the sender has not sent any weather packets the latest 1 day(s).
| Time | Temp. | Humidity | Pressure | Rain* | Wind** | Luminosity | Snow |
|---|---|---|---|---|---|---|---|
| 1777999682 | 9.44° C | 39% | 1002.2 hPa | - | 3.58 m/s, 273° | - | - |
| 1777999282 | 9.44° C | 38% | 1002.2 hPa | - | 3.58 m/s, 269° | - | - |
| 1777998394 | 10° C | 37% | 1002.3 hPa | - | 2.24 m/s, 302° | - | - |
| 1777997909 | 10° C | 34% | 1002.2 hPa | - | 2.24 m/s, 258° | - | - |
| 1777997529 | 10° C | 32% | 1002 hPa | - | 2.68 m/s, 296° | - | - |
| 1777997121 | 10.56° C | 30% | 1002.1 hPa | - | 3.58 m/s, 294° | - | - |
| 1777996442 | 10.56° C | 31% | 1002 hPa | - | 2.68 m/s, 306° | - | - |
| 1777995709 | 11.11° C | 34% | 1001.8 hPa | - | 2.24 m/s, 307° | - | - |
| 1777994949 | 11.67° C | 34% | 1002 hPa | - | 2.68 m/s, 282° | - | - |
| 1777994061 | 11.67° C | 31% | 1001.7 hPa | - | 2.24 m/s, 270° | - | - |
| 1777993422 | 11.11° C | 32% | 1001.7 hPa | - | 2.24 m/s, 271° | - | - |
| 1777992619 | 11.11° C | 32% | 1001.7 hPa | - | 4.47 m/s, 303° | - | - |
| 1777992262 | 11.67° C | 32% | 1001.6 hPa | - | 3.13 m/s, 286° | - | - |
| 1777991449 | 11.67° C | 32% | 1001.6 hPa | - | 1.79 m/s, 281° | - | - |
| 1777990972 | 11.67° C | 31% | 1001.6 hPa | - | 2.68 m/s, 270° | - | - |
| 1777990099 | 11.67° C | 33% | 1001.5 hPa | - | 3.13 m/s, 266° | - | - |
| 1777989689 | 12.22° C | 33% | 1001.5 hPa | - | 2.68 m/s, 270° | - | - |
| 1777988999 | 12.22° C | 32% | 1001.5 hPa | - | 2.24 m/s, 276° | - | - |
| 1777988554 | 12.22° C | 33% | 1001.4 hPa | - | 0.89 m/s, 271° | - | - |
| 1777987804 | 11.67° C | 35% | 1001.3 hPa | - | 1.79 m/s, 274° | - | - |
| 1777987324 | 11.11° C | 36% | 1001.4 hPa | - | 2.24 m/s, 279° | - | - |
| 1777986892 | 11.67° C | 38% | 1001.4 hPa | - | 3.13 m/s, 276° | - | - |
| 1777986464 | 11.11° C | 40% | 1001.1 hPa | - | 4.02 m/s, 305° | - | - |
| 1777985959 | 12.22° C | 40% | 1001.2 hPa | - | 1.79 m/s, 312° | - | - |
| 1777985522 | 11.11° C | 41% | 1001.2 hPa | - | 2.68 m/s, 247° | - | - |
* Rain since midnight (hover to see other rain measurements)
** Current wind speed in m/s (hover to see current wind gust speed)